• en Belgique
  • Liste des pays
  • À 7 jours
  • Température de l'eau
  • Carte satellitaire
  • Carte météo
  • Widgets météo
  • user-avatar
    Se connecter

    Météo par heure à Perth

    Ce jour, 26 Juin, Lundi

    Heure Température Précipitation Vent Pression Humidité
    00:00 +8°C° 0 mm 2 m/s 769 mmHg 83%
    01:00 +8°C° 0 mm 2 m/s 768 mmHg 85%
    02:00 +8°C° 0 mm 2 m/s 768 mmHg 87%
    03:00 +8°C° 0 mm 2 m/s 768 mmHg 89%
    04:00 +8°C° 0 mm 2 m/s 768 mmHg 90%
    05:00 +8°C° 0 mm 2 m/s 769 mmHg 92%
    06:00 +8°C° 0 mm 2 m/s 769 mmHg 91%
    07:00 +8°C° 0 mm 2 m/s 769 mmHg 90%
    08:00 +8°C° 0 mm 2 m/s 769 mmHg 89%
    09:00 +12°C° 0 mm 2 m/s 769 mmHg 76%
    10:00 +14°C° 0 mm 1 m/s 769 mmHg 63%
    11:00 +18°C° 0 mm 1 m/s 769 mmHg 51%
    12:00 +18°C° 0 mm 1 m/s 769 mmHg 49%
    13:00 +18°C° 0 mm 2 m/s 768 mmHg 47%
    14:00 +18°C° 0 mm 2 m/s 768 mmHg 45%
    15:00 +17°C° 0 mm 2 m/s 768 mmHg 51%
    16:00 +16°C° 0 mm 2 m/s 768 mmHg 57%
    17:00 +15°C° 0 mm 2 m/s 768 mmHg 62%
    18:00 +14°C° 0 mm 2 m/s 768 mmHg 68%
    19:00 +13°C° 0 mm 2 m/s 769 mmHg 74%
    20:00 +10°C° 0 mm 3 m/s 769 mmHg 79%
    21:00 +10°C° 0 mm 3 m/s 769 mmHg 83%
    22:00 +10°C° 0 mm 3 m/s 769 mmHg 86%
    23:00 +9°C° 0 mm 3 m/s 770 mmHg 90%

    Demain, 27 Juin, Mardi

    Heure Température Précipitation Vent Pression Humidité
    00:00 +9°C° 0 mm 3 m/s 770 mmHg 91%
    01:00 +9°C° 0 mm 3 m/s 769 mmHg 93%
    02:00 +8°C° 0 mm 3 m/s 769 mmHg 94%
    03:00 +8°C° 0 mm 2 m/s 769 mmHg 94%
    04:00 +7°C° 0 mm 2 m/s 769 mmHg 94%
    05:00 +7°C° 0 mm 2 m/s 769 mmHg 94%
    06:00 +7°C° 0 mm 2 m/s 770 mmHg 93%
    07:00 +8°C° 0 mm 2 m/s 770 mmHg 91%
    08:00 +8°C° 0 mm 2 m/s 770 mmHg 89%
    09:00 +12°C° 0 mm 2 m/s 770 mmHg 80%
    10:00 +13°C° 0 mm 3 m/s 770 mmHg 71%
    11:00 +16°C° 0 mm 3 m/s 770 mmHg 62%
    12:00 +17°C° 0 mm 3 m/s 770 mmHg 59%
    13:00 +18°C° 0 mm 3 m/s 769 mmHg 56%
    14:00 +19°C° 0 mm 2 m/s 769 mmHg 53%
    15:00 +18°C° 0 mm 2 m/s 769 mmHg 57%
    16:00 +17°C° 0 mm 2 m/s 769 mmHg 60%
    17:00 +16°C° 0 mm 2 m/s 769 mmHg 64%
    18:00 +15°C° 0 mm 2 m/s 770 mmHg 67%
    19:00 +14°C° 0 mm 2 m/s 770 mmHg 70%
    20:00 +12°C° 0 mm 3 m/s 771 mmHg 73%
    21:00 +12°C° 0 mm 3 m/s 771 mmHg 75%
    22:00 +12°C° 0 mm 3 m/s 772 mmHg 77%
    23:00 +12°C° 0 mm 3 m/s 772 mmHg 79%

    Après-demain, 28 Juin, Mercredi

    Heure Température Précipitation Vent Pression Humidité
    00:00 +11°C° 0 mm 3 m/s 772 mmHg 83%
    01:00 +10°C° 0 mm 4 m/s 772 mmHg 86%
    02:00 +10°C° 0 mm 4 m/s 772 mmHg 90%
    03:00 +10°C° 0 mm 4 m/s 772 mmHg 91%
    04:00 +8°C° 0 mm 4 m/s 772 mmHg 93%
    05:00 +8°C° 0 mm 4 m/s 772 mmHg 95%
    06:00 +8°C° 0 mm 4 m/s 772 mmHg 94%
    07:00 +8°C° 0 mm 4 m/s 773 mmHg 94%
    08:00 +10°C° 0 mm 4 m/s 773 mmHg 93%
    09:00 +12°C° 0 mm 4 m/s 773 mmHg 83%
    10:00 +13°C° 0 mm 4 m/s 773 mmHg 72%
    11:00 +15°C° 0 mm 4 m/s 773 mmHg 62%
    12:00 +17°C° 0 mm 4 m/s 773 mmHg 57%
    13:00 +18°C° 0 mm 3 m/s 772 mmHg 52%
    14:00 +19°C° 0 mm 3 m/s 771 mmHg 47%
    15:00 +18°C° 0 mm 3 m/s 771 mmHg 52%
    16:00 +17°C° 0 mm 3 m/s 771 mmHg 56%
    17:00 +15°C° 0 mm 2 m/s 771 mmHg 61%
    18:00 +14°C° 0 mm 2 m/s 772 mmHg 64%
    19:00 +12°C° 0 mm 3 m/s 772 mmHg 68%
    20:00 +11°C° 0 mm 3 m/s 772 mmHg 71%
    21:00 +11°C° 0 mm 3 m/s 772 mmHg 72%
    22:00 +10°C° 0 mm 3 m/s 773 mmHg 72%
    23:00 +10°C° 0 mm 4 m/s 773 mmHg 72%

    29 Juin, Jeudi

    Heure Température Précipitation Vent Pression Humidité
    00:00 +10°C° 0 mm 4 m/s 772 mmHg 73%
    01:00 +10°C° 0 mm 4 m/s 772 mmHg 74%
    02:00 +10°C° 0 mm 4 m/s 772 mmHg 74%
    03:00 +8°C° 0 mm 4 m/s 772 mmHg 76%
    04:00 +8°C° 0 mm 4 m/s 772 mmHg 78%
    05:00 +7°C° 0 mm 4 m/s 771 mmHg 80%
    06:00 +7°C° 0 mm 4 m/s 772 mmHg 81%
    07:00 +7°C° 0 mm 4 m/s 772 mmHg 82%
    08:00 +7°C° 0 mm 4 m/s 772 mmHg 82%
    09:00 +11°C° 0 mm 4 m/s 772 mmHg 73%
    10:00 +13°C° 0 mm 4 m/s 772 mmHg 64%
    11:00 +15°C° 0 mm 4 m/s 771 mmHg 54%
    12:00 +17°C° 0 mm 4 m/s 770 mmHg 50%
    13:00 +18°C° 0 mm 3 m/s 769 mmHg 46%
    14:00 +19°C° 0 mm 3 m/s 768 mmHg 41%
    15:00 +17°C° 0 mm 3 m/s 768 mmHg 47%
    16:00 +16°C° 0 mm 2 m/s 768 mmHg 53%
    17:00 +14°C° 0 mm 2 m/s 768 mmHg 59%
    18:00 +13°C° 0 mm 2 m/s 768 mmHg 62%
    19:00 +12°C° 0 mm 2 m/s 768 mmHg 66%
    20:00 +10°C° 0 mm 2 m/s 768 mmHg 69%
    21:00 +10°C° 0 mm 2 m/s 768 mmHg 69%
    22:00 +9°C° 0 mm 3 m/s 767 mmHg 69%
    23:00 +9°C° 0 mm 3 m/s 767 mmHg 69%

    30 Juin, Vendredi

    Heure Température Précipitation Vent Pression Humidité
    00:00 +9°C° 0 mm 3 m/s 767 mmHg 68%
    01:00 +9°C° 0 mm 3 m/s 766 mmHg 67%
    02:00 +8°C° 0 mm 3 m/s 766 mmHg 66%
    03:00 +8°C° 0 mm 3 m/s 766 mmHg 65%
    04:00 +8°C° 0 mm 3 m/s 766 mmHg 64%
    05:00 +8°C° 0 mm 3 m/s 766 mmHg 63%
    06:00 +9°C° 0 mm 3 m/s 766 mmHg 63%
    07:00 +9°C° 0 mm 3 m/s 766 mmHg 62%
    08:00 +9°C° 0 mm 3 m/s 766 mmHg 62%
    09:00 +11°C° 0 mm 3 m/s 766 mmHg 57%
    10:00 +13°C° 0 mm 3 m/s 766 mmHg 52%
    11:00 +17°C° 0 mm 3 m/s 765 mmHg 47%
    12:00 +17°C° 0 mm 3 m/s 765 mmHg 48%
    13:00 +18°C° 0 mm 3 m/s 764 mmHg 49%
    14:00 +19°C° 0 mm 2 m/s 763 mmHg 50%
    15:00 +18°C° 0,1 mm 2 m/s 763 mmHg 58%
    16:00 +16°C° 0,1 mm 2 m/s 763 mmHg 66%
    17:00 +15°C° 0,1 mm 1 m/s 763 mmHg 74%
    18:00 +14°C° 0,1 mm 1 m/s 764 mmHg 76%
    19:00 +14°C° 0,1 mm 1 m/s 764 mmHg 79%
    20:00 +13°C° 0,1 mm 1 m/s 764 mmHg 81%
    21:00 +12°C° 0,2 mm 1 m/s 764 mmHg 83%
    22:00 +12°C° 0,2 mm 1 m/s 764 mmHg 85%
    23:00 +12°C° 0,2 mm 1 m/s 764 mmHg 86%

    1 Juillet, Samedi

    Heure Température Précipitation Vent Pression Humidité
    00:00 +12°C° 0,2 mm 1 m/s 764 mmHg 86%
    01:00 +12°C° 0,2 mm 1 m/s 764 mmHg 87%
    02:00 +12°C° 0,2 mm 1 m/s 763 mmHg 87%
    03:00 +12°C° 0,1 mm 1 m/s 763 mmHg 88%
    04:00 +10°C° 0,1 mm 2 m/s 763 mmHg 89%
    05:00 +10°C° 0,1 mm 2 m/s 763 mmHg 91%
    06:00 +12°C° 0,1 mm 2 m/s 763 mmHg 90%
    07:00 +12°C° 0,1 mm 2 m/s 764 mmHg 90%
    08:00 +11°C° 0,1 mm 3 m/s 764 mmHg 90%
    09:00 +12°C° 0 mm 3 m/s 764 mmHg 85%
    10:00 +13°C° 0 mm 3 m/s 764 mmHg 80%
    11:00 +14°C° 0 mm 3 m/s 764 mmHg 75%
    12:00 +16°C° 0 mm 3 m/s 764 mmHg 69%
    13:00 +15°C° 0 mm 4 m/s 763 mmHg 63%
    14:00 +17°C° 0 mm 4 m/s 763 mmHg 57%
    15:00 +16°C° 0 mm 3 m/s 763 mmHg 60%
    16:00 +14°C° 0 mm 3 m/s 764 mmHg 62%
    17:00 +13°C° 0 mm 3 m/s 764 mmHg 65%
    18:00 +12°C° 0 mm 3 m/s 765 mmHg 70%
    19:00 +11°C° 0 mm 3 m/s 765 mmHg 76%
    20:00 +9°C° 0 mm 2 m/s 766 mmHg 81%
    21:00 +9°C° 0 mm 2 m/s 766 mmHg 82%
    22:00 +8°C° 0 mm 2 m/s 766 mmHg 82%
    23:00 +8°C° 0 mm 2 m/s 766 mmHg 82%
    Voir plus